[[{"header":{"parameterUnit":"m.s-1","parameterCategory":1,"la1":30.2991,"la2":30.254,"lo1":-89.0895,"lo2":-89.0444,"dy":0.0017,"dx":0.0017,"nx":28,"ny":28,"refTime":"2023-08-16T21:00:00:Z","depth":0,"parameterNumber":2,"parameterNumberName":"U-component_of_WINDS"},"data":[0,0,0,0,0,0,0,0,0,0,0,0,0,0,0,0,0,0,0,0,0,0,0,0,0,0,0,0,0,0,0,0,0,0,0,0,0,0,0,0,0,0,0,0,0,0,0,0,0,0,0,0,0,0,0,0,0,0,1.9069,1.907,0,1.9181,1.9182,1.9184,1.9193,1.9192,1.9191,1.919,1.9309,1.9313,1.9317,0,0,0,0,0,0,0,0,0,0,0,0,0,1.8865,1.8868,1.9068,1.907,1.9071,1.9181,1.9183,1.9184,1.9194,1.9192,1.9191,1.9189,1.9308,1.9313,1.9318,0,0,0,0,0,0,0,0,0,0,0,0,0,1.8963,1.887,1.9068,1.9089,1.9092,1.9181,1.9183,1.9184,1.9194,1.9192,1.919,1.9189,1.9306,1.9312,1.9319,1.9395,0,0,1.9338,1.9341,0,0,0,0,0,0,0,0,1.8957,1.897,1.9085,1.9088,1.9091,1.9171,1.9154,1.9255,1.9194,1.9155,1.919,1.9188,1.9265,1.9275,1.93,1.94,1.9406,1.9339,1.9343,1.9345,1.9347,0,0,0,0,0,0,0,1.8951,1.8966,1.9113,1.9086,1.909,1.9094,1.9106,1.9174,1.9219,1.9159,1.916,1.9173,1.9266,1.9294,1.9303,1.9407,1.9339,1.9344,1.9348,1.9351,1.9576,1.9578,0,0,0,0,0,0,1.8939,1.896,1.911,1.9116,1.9018,1.9099,1.9113,1.9148,1.9218,1.9227,1.9174,1.9173,1.9283,1.9295,1.9307,1.94,1.9345,1.9351,1.9355,1.9574,1.9577,1.9579,0,0,0,0,0,0,1.8935,1.8953,1.9105,1.9039,1.9058,1.9105,1.9144,1.9151,1.9178,1.923,1.9239,1.9193,1.9282,1.9298,1.9373,1.9405,1.9354,1.936,1.9572,1.9575,1.9578,1.9588,0,0,0,0,0,0,1.8929,1.8951,1.898,1.9039,1.9062,1.9168,1.9146,1.9154,1.9189,1.9188,1.925,1.9259,1.9282,1.9363,1.9379,1.9413,1.9365,1.9569,1.9573,1.9577,1.9585,1.9591,1.9597,0,0,0,0,0,1.8922,1.8979,1.8981,1.8999,1.9098,1.9169,1.9183,1.9207,1.9191,1.9221,1.9254,1.9257,1.9399,1.937,1.9389,1.9425,1.9567,1.9572,1.9576,1.9583,1.959,1.9596,0,0,0,0,0,0,1.8923,1.8987,1.899,1.9068,1.9113,1.9171,1.9209,1.9214,1.9266,1.9263,1.9293,1.9307,1.938,1.9411,1.9378,1.9502,1.9481,1.949,1.948,1.9487,1.9493,1.9484,1.9371,0,0,0,0,0,1.8932,1.8983,1.9037,1.9101,1.9123,1.9162,1.9194,1.9209,1.9258,1.9277,1.9316,1.9364,1.9419,1.9455,1.9509,1.959,1.9604,1.9624,1.963,1.9634,1.9641,1.9685,1.9695,1.9594,1.9594,1.9594,0,0,1.8952,1.8993,1.9024,1.9102,1.9139,1.9192,1.9178,1.9235,1.9276,1.9286,1.9358,1.9389,1.9445,1.9522,1.9559,1.955,1.9672,1.964,1.9643,1.9648,1.9691,1.9701,1.9709,1.9598,1.9597,1.9597,0,0,1.9014,1.9051,1.9108,1.9145,1.92,1.9226,1.9239,1.9297,1.9317,1.939,1.9399,1.9448,1.9543,1.9582,1.9614,1.9692,1.9696,1.9709,1.9738,1.9781,1.9789,1.9796,1.9824,1.9833,1.9716,1.9716,1.9716,0,1.9032,1.9112,1.9136,1.9193,1.9227,1.9239,1.9297,1.9332,1.9403,1.9426,1.9415,1.9534,1.9572,1.9659,1.9678,1.9704,1.9721,1.9701,1.9786,1.9793,1.9801,1.9827,1.9837,1.9717,1.9717,1.9717,1.9717,0,1.9131,1.9186,1.9225,1.9292,1.9331,1.9388,1.9422,1.9459,1.9471,1.9498,1.9572,1.9618,1.9681,1.9704,1.9717,1.9793,1.9785,1.978,1.9759,1.9811,1.9836,1.9846,1.9718,1.9718,1.9718,1.9717,0,0,1.9196,1.9276,1.929,1.932,1.9382,1.9426,1.9484,1.9545,1.9575,1.9624,1.9674,1.9754,1.9749,1.9786,1.9803,1.9841,1.9899,1.9831,1.9833,1.9841,1.9985,1.9988,1.9999,1.9903,1.9905,1.9907,1.998,0,1.9265,1.9367,1.9392,1.948,1.9531,1.9543,1.9594,1.9638,1.9665,1.9714,1.9744,1.98,1.979,1.9812,1.985,1.9884,1.9928,1.9879,1.9949,1.9952,1.9934,2.0012,2.0016,2.0083,1.999,1.9992,1.9993,0,1.9359,1.9408,1.9501,1.9557,1.9579,1.9624,1.9682,1.9728,1.9779,1.9796,1.9837,1.985,1.9912,1.9889,1.9974,1.994,1.9971,1.9992,1.9995,2.0002,1.9975,2.002,2.0105,2.0115,2.0009,2.0008,2.0007,0,1.9396,1.9487,1.9554,1.9579,1.9646,1.9677,1.9707,1.9756,1.9791,1.9842,1.9864,1.9922,1.9954,1.9999,2.0028,2.0009,2.0111,2.0091,2.0127,2.0126,2.0147,2.0145,2.0237,2.0169,2.0169,2.0168,2.0168,0,1.947,1.9526,1.9571,1.9612,1.9676,1.9704,1.9766,1.9796,1.9839,1.9887,1.9902,1.9947,1.9983,2.0033,2.0056,2.0123,2.0138,2.0154,2.0159,2.0152,2.015,2.0171,2.0167,2.0171,2.0171,2.017,2.017,0,1.9522,1.9554,1.9628,1.9685,1.9701,1.9745,1.9794,1.9835,1.9863,1.9923,1.9939,1.9983,2.0042,2.0076,2.0151,2.0167,2.0241,2.0245,2.0223,2.0226,2.026,2.0256,2.0368,2.0384,2.0306,2.0306,2.0307,0,1.9566,1.9609,1.9671,1.9703,1.9733,1.9785,1.9821,1.9851,1.9887,1.9948,1.9982,2.0042,2.0092,2.0186,2.0225,2.0283,2.0288,2.0323,2.0296,2.0287,2.0287,2.0283,2.0288,2.0327,2.0328,2.0328,2.0329,0,1.9641,1.9655,1.9705,1.9761,1.9802,1.9848,1.9894,1.992,1.9957,1.9998,2.0058,2.0096,2.0173,2.0232,2.0293,2.0325,2.0333,2.0337,2.0348,2.0341,2.0326,2.0333,2.0235,2.0334,2.0334,2.0333,2.0333,2.0333,1.9689,1.9728,1.9778,1.9833,1.987,1.9912,1.9953,1.9986,2.0037,2.01,2.0115,2.0179,2.0229,2.0311,2.0344,2.0395,2.0389,2.0405,2.0409,2.0413,2.0413,2.0319,2.0406,2.0406,2.0406,2.0406,2.0406,0,1.9764,1.9796,1.9847,1.991,1.9954,1.9958,2.0008,2.0045,2.01,2.0146,2.0194,2.0263,2.0321,2.0365,2.0424,2.0456,2.0462,2.0471,2.0468,2.0475,2.0416,2.04,2.0465,2.0465,2.0465,2.0465,2.0465,2.0465,1.9808,1.9874,1.9894,1.9978,2.0011,2.0072,2.0101,2.014,2.0176,2.0253,2.0301,2.0328,2.0374,2.0436,2.049,2.0501,2.0522,2.053,2.0542,2.0486,2.0479,2.0473,2.0458,2.0535,2.0535,2.0597,2.0597,2.0598]},{"header":{"parameterUnit":"m.s-1","parameterCategory":1,"la1":30.2991,"la2":30.254,"lo1":-89.0895,"lo2":-89.0444,"dy":0.0017,"dx":0.0017,"nx":28,"ny":28,"refTime":"2023-08-16T21:00:00:Z","depth":0,"parameterNumber":3,"parameterNumberName":"V-component_of_WINDS"},"data":[0,0,0,0,0,0,0,0,0,0,0,0,0,0,0,0,0,0,0,0,0,0,0,0,0,0,0,0,0,0,0,0,0,0,0,0,0,0,0,0,0,0,0,0,0,0,0,0,0,0,0,0,0,0,0,0,0,0,4.4342,4.4343,0,4.4421,4.4422,4.4423,4.442,4.4419,4.4418,4.4417,4.4493,4.4496,4.4499,0,0,0,0,0,0,0,0,0,0,0,0,0,4.418,4.4183,4.4342,4.4343,4.4344,4.4421,4.4422,4.4423,4.442,4.4419,4.4417,4.4416,4.4492,4.4496,4.4499,0,0,0,0,0,0,0,0,0,0,0,0,0,4.4254,4.4184,4.4341,4.4352,4.4353,4.442,4.4422,4.4423,4.442,4.4419,4.4417,4.4415,4.4491,4.4495,4.45,4.4561,0,0,4.4514,4.4516,0,0,0,0,0,0,0,0,4.425,4.426,4.4349,4.4351,4.4353,4.4409,4.4393,4.4469,4.4421,4.4395,4.4416,4.4415,4.4466,4.4473,4.4491,4.4564,4.4568,4.4514,4.4517,4.4519,4.452,0,0,0,0,0,0,0,4.4245,4.4256,4.4373,4.435,4.4353,4.4349,4.4358,4.4407,4.4438,4.4397,4.4397,4.4406,4.4467,4.4486,4.4493,4.4569,4.4514,4.4518,4.4521,4.4523,4.469,4.4691,0,0,0,0,0,0,4.4238,4.4252,4.437,4.4375,4.4296,4.4354,4.4363,4.4392,4.4438,4.4443,4.4408,4.4406,4.4479,4.4487,4.4495,4.4565,4.4519,4.4523,4.4526,4.4688,4.469,4.4692,0,0,0,0,0,0,4.4235,4.4249,4.4367,4.4314,4.4329,4.4358,4.4391,4.4395,4.4415,4.4446,4.4451,4.4423,4.4478,4.4489,4.4543,4.4568,4.4525,4.4529,4.4686,4.4688,4.4691,4.4709,0,0,0,0,0,0,4.423,4.4248,4.4273,4.4314,4.4331,4.4416,4.4393,4.4398,4.4423,4.4422,4.4462,4.4466,4.4478,4.4537,4.4548,4.4574,4.4533,4.4684,4.4687,4.469,4.4706,4.4712,4.4716,0,0,0,0,0,4.4224,4.4276,4.4275,4.4289,4.4365,4.4418,4.4427,4.4441,4.4425,4.4449,4.4469,4.4465,4.4564,4.4542,4.4555,4.4582,4.4682,4.4686,4.469,4.4704,4.471,4.4716,0,0,0,0,0,0,4.4237,4.4281,4.4281,4.4348,4.4379,4.4418,4.4449,4.4449,4.4484,4.4481,4.4495,4.4504,4.4557,4.4576,4.4551,4.4641,4.4621,4.4627,4.4627,4.4633,4.4639,4.4632,4.4537,0,0,0,0,0,4.4247,4.4289,4.4325,4.438,4.4396,4.4419,4.4443,4.4451,4.4483,4.4496,4.452,4.455,4.4587,4.4612,4.4648,4.4709,4.4715,4.4733,4.4739,4.4743,4.4747,4.4775,4.4783,4.4704,4.4704,4.4704,0,0,4.4269,4.4299,4.4324,4.4383,4.4408,4.4448,4.4431,4.4475,4.4503,4.4503,4.4555,4.4573,4.4607,4.4663,4.4689,4.468,4.477,4.4747,4.475,4.4753,4.478,4.4787,4.4794,4.4707,4.4706,4.4706,0,0,4.4329,4.4358,4.4404,4.4429,4.4467,4.4482,4.4492,4.453,4.4542,4.4595,4.4594,4.4626,4.4692,4.4715,4.4735,4.4798,4.4794,4.4809,4.4835,4.4862,4.4868,4.4874,4.4892,4.4899,4.4814,4.4814,4.4814,0,4.4351,4.4413,4.4428,4.4471,4.4494,4.4495,4.4539,4.4563,4.461,4.4625,4.4615,4.4693,4.4717,4.4776,4.479,4.4808,4.4818,4.4804,4.4867,4.4872,4.4878,4.4895,4.4903,4.4815,4.4815,4.4815,4.4815,0,4.4436,4.4478,4.4511,4.4556,4.4583,4.4627,4.4645,4.467,4.4674,4.4689,4.4739,4.4767,4.4807,4.4821,4.4826,4.488,4.4872,4.4864,4.4844,4.4886,4.4903,4.491,4.4817,4.4817,4.4816,4.4816,0,0,4.4507,4.4557,4.4568,4.4587,4.4627,4.4658,4.47,4.4739,4.4758,4.479,4.4823,4.4876,4.4867,4.489,4.4896,4.4921,4.4963,4.4909,4.491,4.4915,4.5018,4.5022,4.503,4.4961,4.4963,4.4964,4.5014,0,4.4568,4.4643,4.4655,4.472,4.4756,4.4755,4.4791,4.4817,4.4831,4.4862,4.4876,4.4912,4.49,4.4913,4.4937,4.4953,4.4983,4.495,4.4988,4.4989,4.4977,4.504,4.5045,4.5092,4.5021,4.5022,4.5023,0,4.465,4.4683,4.4751,4.4781,4.4797,4.4829,4.4863,4.4894,4.4922,4.4929,4.4953,4.4955,4.4994,4.4973,4.5025,4.5001,4.5017,4.5027,4.5029,4.5031,4.5007,4.5041,4.5108,4.5113,4.5034,4.5034,4.5033,0,4.469,4.4751,4.4798,4.4815,4.4853,4.4874,4.489,4.4917,4.4938,4.4967,4.498,4.5014,4.5031,4.5055,4.5065,4.505,4.5114,4.5096,4.5119,4.5119,4.5132,4.513,4.5199,4.5147,4.5146,4.5146,4.5146,0,4.4755,4.4796,4.4816,4.4845,4.4889,4.49,4.4943,4.4958,4.4981,4.501,4.5012,4.5039,4.5052,4.508,4.5088,4.5127,4.5136,4.5141,4.5142,4.5139,4.5138,4.5149,4.5144,4.5148,4.5148,4.5147,4.5147,0,4.4807,4.4823,4.4873,4.4904,4.4912,4.4943,4.4968,4.4994,4.5006,4.5043,4.5052,4.5071,4.5104,4.5116,4.5157,4.5162,4.5205,4.5205,4.5196,4.5196,4.5217,4.5214,4.5293,4.5302,4.5246,4.5247,4.5247,0,4.4846,4.4877,4.491,4.493,4.4947,4.4979,4.5,4.5011,4.5032,4.5064,4.5085,4.5118,4.5145,4.5196,4.5212,4.5241,4.524,4.5266,4.5245,4.5239,4.5236,4.5233,4.5235,4.5269,4.527,4.527,4.5271,0,4.4913,4.4918,4.4949,4.4981,4.5005,4.5031,4.5056,4.5072,4.5086,4.5109,4.5143,4.5163,4.5203,4.5234,4.5263,4.5277,4.5275,4.5277,4.5284,4.528,4.5272,4.5273,4.5203,4.5275,4.5275,4.5274,4.5274,4.5274,4.4957,4.4982,4.5008,4.5041,4.5061,4.5083,4.5108,4.5122,4.5151,4.5184,4.5188,4.5223,4.5246,4.5285,4.53,4.5326,4.5319,4.5329,4.5331,4.5333,4.5332,4.527,4.5331,4.5331,4.5331,4.5331,4.5331,0,4.502,4.5036,4.5066,4.51,4.5125,4.5121,4.5147,4.5167,4.5198,4.522,4.5246,4.5281,4.531,4.5328,4.5356,4.5373,4.5372,4.5379,4.5377,4.5379,4.5339,4.5329,4.5379,4.5379,4.5379,4.5379,4.5379,4.5379,4.5056,4.5097,4.5105,4.5154,4.517,4.5204,4.5218,4.5238,4.5255,4.5295,4.5319,4.533,4.5349,4.5378,4.5403,4.5407,4.5416,4.5424,4.5426,4.5388,4.5383,4.5378,4.5369,4.5426,4.5426,4.5464,4.5465,4.5465]}]]